Location: ??????
(55.2000°N, 38.3000°E)
Time: 01:12:11
(UTC+00:00)

Lacrosse 4 Rocket - Visible Passes

Search period start: 11 February 2026 00:00
Search period end: 21 February 2026 00:00
Orbit: 513 x 564 km, 68.0° (Epoch: 10 February)

Date Brightness Start Highest point End Pass type
(mag) Time Alt. Az. Time Alt. Az. Time Alt. Az.
11 Feb 3.9 01:48:31 13° N 01:48:31 13° N 01:50:05 10° NNE visible
11 Feb 3.4 03:24:27 10° NNW 03:27:26 20° NNE 03:30:25 10° ENE visible
12 Feb 3.9 01:40:12 13° N 01:40:12 13° N 01:41:44 10° NNE visible
12 Feb 3.3 03:15:59 10° NNW 03:19:02 21° NNE 03:22:08 10° E visible
13 Feb 3.9 01:31:53 13° N 01:31:53 13° N 01:33:25 10° NE visible
13 Feb 3.3 03:07:29 10° NNW 03:10:38 23° NNE 03:13:50 10° E visible
14 Feb 4.0 01:23:34 13° NNE 01:23:34 13° NNE 01:25:06 10° NE visible
14 Feb 3.2 02:59:01 10° NNW 03:02:14 24° NNE 03:05:31 10° E visible
15 Feb 4.0 01:15:15 13° NNE 01:15:15 13° NNE 01:16:47 10° NE visible
15 Feb 3.1 02:50:42 11° NNW 02:53:49 26° NNE 02:57:11 10° E visible
16 Feb 4.1 01:06:58 13° NNE 01:06:58 13° NNE 01:08:28 10° NE visible
16 Feb 3.0 02:42:25 12° NNW 02:45:23 28° NNE 02:48:50 10° E visible
17 Feb 4.1 00:58:41 14° NNE 00:58:41 14° NNE 01:00:09 10° NE visible
17 Feb 2.9 02:34:08 14° NNW 02:36:58 30° NE 02:40:29 10° E visible
18 Feb 4.2 00:50:26 14° NNE 00:50:26 14° NNE 00:51:50 10° NE visible
18 Feb 2.8 02:25:54 16° NNW 02:28:30 32° NE 02:32:06 10° ESE visible
18 Feb 1.5 04:02:38 10° NW 04:06:28 50° WSW 04:10:19 10° SSE visible
19 Feb 4.2 00:42:13 14° NNE 00:42:13 14° NNE 00:43:32 10° NE visible
19 Feb 2.7 02:17:41 18° NNW 02:20:03 35° NE 02:23:43 10° ESE visible
19 Feb 1.7 03:54:10 10° NW 03:57:56 44° WSW 04:01:44 10° SSE visible
20 Feb 4.3 00:34:03 14° NE 00:34:03 14° NE 00:35:12 10° NE visible
20 Feb 2.5 02:09:31 22° NNW 02:11:34 38° NE 02:15:18 10° ESE visible
20 Feb 1.8 03:45:42 10° NW 03:49:23 39° WSW 03:53:07 10° S visible
